Year,Month,Day,Hour,Minute,Value (Times are PST for temperature in C)
2018,08,23,00,00,7.20
2018,08,23,00,01,7.20
2018,08,23,00,02,7.20
2018,08,23,00,03,7.20
2018,08,23,00,04,7.10
2018,08,23,00,05,7.10
2018,08,23,00,06,7.10
2018,08,23,00,07,7.00
2018,08,23,00,08,7.00
2018,08,23,00,09,6.90
2018,08,23,00,10,6.90
2018,08,23,00,11,6.80
2018,08,23,00,12,6.80
2018,08,23,00,13,6.80
2018,08,23,00,14,6.70
2018,08,23,00,15,6.70
2018,08,23,00,16,6.70
2018,08,23,00,17,6.60
2018,08,23,00,18,6.60
2018,08,23,00,19,6.60
2018,08,23,00,20,6.60
2018,08,23,00,21,6.60
2018,08,23,00,22,6.60
2018,08,23,00,23,6.50
2018,08,23,00,24,6.50
2018,08,23,00,25,6.50
2018,08,23,00,26,6.50
2018,08,23,00,27,6.40
2018,08,23,00,28,6.40
2018,08,23,00,29,6.40
2018,08,23,00,30,6.40
2018,08,23,00,31,6.40
2018,08,23,00,32,6.40
2018,08,23,00,33,6.40
2018,08,23,00,34,6.40
2018,08,23,00,35,6.30
2018,08,23,00,36,6.30
2018,08,23,00,37,6.30
2018,08,23,00,38,6.30
2018,08,23,00,39,6.30
2018,08,23,00,40,6.30
2018,08,23,00,41,6.30
2018,08,23,00,42,6.30
2018,08,23,00,43,6.30
2018,08,23,00,44,6.30
2018,08,23,00,45,6.30
2018,08,23,00,46,6.30
2018,08,23,00,47,6.20
2018,08,23,00,48,6.20
2018,08,23,00,49,6.20
2018,08,23,00,50,6.20
2018,08,23,00,51,6.20
2018,08,23,00,52,6.20
2018,08,23,00,53,6.20
2018,08,23,00,54,6.20
2018,08,23,00,55,6.20
2018,08,23,00,56,6.20
2018,08,23,00,57,6.20
2018,08,23,00,58,6.20
2018,08,23,00,59,6.10
2018,08,23,01,00,6.10
2018,08,23,01,01,6.10
2018,08,23,01,02,6.10
2018,08,23,01,03,6.10
2018,08,23,01,04,6.10
2018,08,23,01,05,6.10
2018,08,23,01,06,6.10
2018,08,23,01,07,6.00
2018,08,23,01,08,6.00
2018,08,23,01,09,6.00
2018,08,23,01,10,6.00
2018,08,23,01,11,5.90
2018,08,23,01,12,5.90
2018,08,23,01,13,5.90
2018,08,23,01,14,5.90
2018,08,23,01,15,5.90
2018,08,23,01,16,5.90
2018,08,23,01,17,5.80
2018,08,23,01,18,5.80
2018,08,23,01,19,5.80
2018,08,23,01,20,5.80
2018,08,23,01,21,5.80
2018,08,23,01,22,5.80
2018,08,23,01,23,5.70
2018,08,23,01,24,5.70
2018,08,23,01,25,5.70
2018,08,23,01,26,5.70
2018,08,23,01,27,5.70
2018,08,23,01,28,5.60
2018,08,23,01,29,5.60
2018,08,23,01,30,5.60
2018,08,23,01,31,5.60
2018,08,23,01,32,5.60
2018,08,23,01,33,5.60
2018,08,23,01,34,5.60
2018,08,23,01,35,5.60
2018,08,23,01,36,5.60
2018,08,23,01,37,5.60
2018,08,23,01,38,5.60
2018,08,23,01,39,5.60
2018,08,23,01,40,5.60
2018,08,23,01,41,5.60
2018,08,23,01,42,5.60
2018,08,23,01,43,5.60
2018,08,23,01,44,5.70
2018,08,23,01,45,5.70
2018,08,23,01,46,5.70
2018,08,23,01,47,5.70
2018,08,23,01,48,5.70
2018,08,23,01,49,5.70
2018,08,23,01,50,5.70
2018,08,23,01,51,5.70
2018,08,23,01,52,5.70
2018,08,23,01,53,5.70
2018,08,23,01,54,5.70
2018,08,23,01,55,5.70
2018,08,23,01,56,5.70
2018,08,23,01,57,5.70
2018,08,23,01,58,5.70
2018,08,23,01,59,5.70
2018,08,23,02,00,5.80
2018,08,23,02,01,5.80
2018,08,23,02,02,5.80
2018,08,23,02,03,5.80
2018,08,23,02,04,5.80
2018,08,23,02,05,5.80
2018,08,23,02,06,5.80
2018,08,23,02,07,5.80
2018,08,23,02,08,5.80
2018,08,23,02,09,5.80
2018,08,23,02,10,5.80
2018,08,23,02,11,5.80
2018,08,23,02,12,5.80
2018,08,23,02,13,5.80
2018,08,23,02,14,5.80
2018,08,23,02,15,5.80
2018,08,23,02,16,5.80
2018,08,23,02,17,5.80
2018,08,23,02,18,5.80
2018,08,23,02,19,5.80
2018,08,23,02,20,5.80
2018,08,23,02,21,5.80
2018,08,23,02,22,5.70
2018,08,23,02,23,5.70
2018,08,23,02,24,5.70
2018,08,23,02,25,5.70
2018,08,23,02,26,5.70
2018,08,23,02,27,5.70
2018,08,23,02,28,5.70
2018,08,23,02,29,5.70
2018,08,23,02,30,5.70
2018,08,23,02,31,5.70
2018,08,23,02,32,5.70
2018,08,23,02,33,5.70
2018,08,23,02,34,5.70
2018,08,23,02,35,5.70
2018,08,23,02,36,5.70
2018,08,23,02,37,5.70
2018,08,23,02,38,5.60
2018,08,23,02,39,5.60
2018,08,23,02,40,5.60
2018,08,23,02,41,5.60
2018,08,23,02,42,5.60
2018,08,23,02,43,5.60
2018,08,23,02,44,5.60
2018,08,23,02,45,5.60
2018,08,23,02,46,5.50
2018,08,23,02,47,5.50
2018,08,23,02,48,5.50
2018,08,23,02,49,5.50
2018,08,23,02,50,5.50
2018,08,23,02,51,5.50
2018,08,23,02,52,5.40
2018,08,23,02,53,5.40
2018,08,23,02,54,5.40
2018,08,23,02,55,5.40
2018,08,23,02,56,5.40
2018,08,23,02,57,5.40
2018,08,23,02,58,5.40
2018,08,23,02,59,5.40
2018,08,23,03,00,5.30
2018,08,23,03,01,5.30
2018,08,23,03,02,5.30
2018,08,23,03,03,5.30
2018,08,23,03,04,5.30
2018,08,23,03,05,5.30
2018,08,23,03,06,5.30
2018,08,23,03,07,5.30
2018,08,23,03,08,5.30
2018,08,23,03,09,5.20
2018,08,23,03,10,5.20
2018,08,23,03,11,5.20
2018,08,23,03,12,5.20
2018,08,23,03,13,5.20
2018,08,23,03,14,5.20
2018,08,23,03,15,5.10
2018,08,23,03,16,5.10
2018,08,23,03,17,5.10
2018,08,23,03,18,5.10
2018,08,23,03,19,5.00
2018,08,23,03,20,5.00
2018,08,23,03,21,5.00
2018,08,23,03,22,4.90
2018,08,23,03,23,4.90
2018,08,23,03,24,4.90
2018,08,23,03,25,4.90
2018,08,23,03,26,4.80
2018,08,23,03,27,4.80
2018,08,23,03,28,4.80
2018,08,23,03,29,4.80
2018,08,23,03,30,4.80
2018,08,23,03,31,4.70
2018,08,23,03,32,4.70
2018,08,23,03,33,4.70
2018,08,23,03,34,4.70
2018,08,23,03,35,4.70
2018,08,23,03,36,4.60
2018,08,23,03,37,4.60
2018,08,23,03,38,4.60
2018,08,23,03,39,4.60
2018,08,23,03,40,4.60
2018,08,23,03,41,4.60
2018,08,23,03,42,4.60
2018,08,23,03,43,4.60
2018,08,23,03,44,4.50
2018,08,23,03,45,4.50
2018,08,23,03,46,4.50
2018,08,23,03,47,4.50
2018,08,23,03,48,4.50
2018,08,23,03,49,4.40
2018,08,23,03,50,4.40
2018,08,23,03,51,4.40
2018,08,23,03,52,4.40
2018,08,23,03,53,4.40
2018,08,23,03,54,4.40
2018,08,23,03,55,4.30
2018,08,23,03,56,4.30
2018,08,23,03,57,4.30
2018,08,23,03,58,4.30
2018,08,23,03,59,4.30
2018,08,23,04,00,4.30
2018,08,23,04,01,4.30
2018,08,23,04,02,4.30
2018,08,23,04,03,4.30
2018,08,23,04,04,4.30
2018,08,23,04,05,4.30
2018,08,23,04,06,4.30
2018,08,23,04,07,4.30
2018,08,23,04,08,4.30
2018,08,23,04,09,4.30
2018,08,23,04,10,4.30
2018,08,23,04,11,4.30
2018,08,23,04,12,4.30
2018,08,23,04,13,4.30
2018,08,23,04,14,4.30
2018,08,23,04,15,4.30
2018,08,23,04,16,4.30
2018,08,23,04,17,4.30
2018,08,23,04,18,4.30
2018,08,23,04,19,4.30
2018,08,23,04,20,4.30
2018,08,23,04,21,4.30
2018,08,23,04,22,4.30
2018,08,23,04,23,4.20
2018,08,23,04,24,4.20
2018,08,23,04,25,4.20
2018,08,23,04,26,4.20
2018,08,23,04,27,4.20
2018,08,23,04,28,4.20
2018,08,23,04,29,4.10
2018,08,23,04,30,4.10
2018,08,23,04,31,4.10
2018,08,23,04,32,4.10
2018,08,23,04,33,4.00
2018,08,23,04,34,4.00
2018,08,23,04,35,4.00
2018,08,23,04,36,4.00
2018,08,23,04,37,3.90
2018,08,23,04,38,3.90
2018,08,23,04,39,3.90
2018,08,23,04,40,3.90
2018,08,23,04,41,3.80
2018,08,23,04,42,3.80
2018,08,23,04,43,3.80
2018,08,23,04,44,3.80
2018,08,23,04,45,3.70
2018,08,23,04,46,3.70
2018,08,23,04,47,3.70
2018,08,23,04,48,3.70
2018,08,23,04,49,3.70
2018,08,23,04,50,3.70
2018,08,23,04,51,3.70
2018,08,23,04,52,3.60
2018,08,23,04,53,3.60
2018,08,23,04,54,3.60
2018,08,23,04,55,3.60
2018,08,23,04,56,3.60
2018,08,23,04,57,3.60
2018,08,23,04,58,3.60
2018,08,23,04,59,3.60
2018,08,23,05,00,3.60
2018,08,23,05,01,3.60
2018,08,23,05,02,3.50
2018,08,23,05,03,3.50
2018,08,23,05,04,3.50
2018,08,23,05,05,3.40
2018,08,23,05,06,3.40
2018,08,23,05,07,3.40
2018,08,23,05,08,3.40
2018,08,23,05,09,3.40
2018,08,23,05,10,3.40
2018,08,23,05,11,3.40
2018,08,23,05,12,3.40
2018,08,23,05,13,3.40
2018,08,23,05,14,3.40
2018,08,23,05,15,3.40
2018,08,23,05,16,3.30
2018,08,23,05,17,3.30
2018,08,23,05,18,3.30
2018,08,23,05,19,3.30
2018,08,23,05,20,3.30
2018,08,23,05,21,3.20
2018,08,23,05,22,3.20
2018,08,23,05,23,3.20
2018,08,23,05,24,3.20
2018,08,23,05,25,3.20
2018,08,23,05,26,3.10
2018,08,23,05,27,3.10
2018,08,23,05,28,3.10
2018,08,23,05,29,3.10
2018,08,23,05,30,3.10
2018,08,23,05,31,3.00
2018,08,23,05,32,3.00
2018,08,23,05,33,3.00
2018,08,23,05,34,3.00
2018,08,23,05,35,2.90
2018,08,23,05,36,2.90
2018,08,23,05,37,2.90
2018,08,23,05,38,2.90
2018,08,23,05,39,2.90
2018,08,23,05,40,2.80
2018,08,23,05,41,2.80
2018,08,23,05,42,2.80
2018,08,23,05,43,2.80
2018,08,23,05,44,2.80
2018,08,23,05,45,2.80
2018,08,23,05,46,2.80
2018,08,23,05,47,2.80
2018,08,23,05,48,2.80
2018,08,23,05,49,2.80
2018,08,23,05,50,2.80
2018,08,23,05,51,2.80
2018,08,23,05,52,2.80
2018,08,23,05,53,2.80
2018,08,23,05,54,2.80
2018,08,23,05,55,2.80
2018,08,23,05,56,2.80
2018,08,23,05,57,2.80
2018,08,23,05,58,2.70
2018,08,23,05,59,2.70
2018,08,23,06,00,2.70
2018,08,23,06,01,2.70
2018,08,23,06,02,2.70
2018,08,23,06,03,2.60
2018,08,23,06,04,2.60
2018,08,23,06,05,2.60
2018,08,23,06,06,2.60
2018,08,23,06,07,2.60
2018,08,23,06,08,2.60
2018,08,23,06,09,2.50
2018,08,23,06,10,2.50
2018,08,23,06,11,2.50
2018,08,23,06,12,2.50
2018,08,23,06,13,2.40
2018,08,23,06,14,2.40
2018,08,23,06,15,2.40
2018,08,23,06,16,2.40
2018,08,23,06,17,2.30
2018,08,23,06,18,2.30
2018,08,23,06,19,2.30
2018,08,23,06,20,2.30
2018,08,23,06,21,2.30
2018,08,23,06,22,2.20
2018,08,23,06,23,2.20
2018,08,23,06,24,2.20
2018,08,23,06,25,2.20
2018,08,23,06,26,2.20
2018,08,23,06,27,2.10
2018,08,23,06,28,2.10
2018,08,23,06,29,2.10
2018,08,23,06,30,2.10
2018,08,23,06,31,2.00
2018,08,23,06,32,2.00
2018,08,23,06,33,2.00
2018,08,23,06,34,1.90
2018,08,23,06,35,1.90
2018,08,23,06,36,1.90
2018,08,23,06,37,1.90
2018,08,23,06,38,1.80
2018,08,23,06,39,1.80
2018,08,23,06,40,1.80
2018,08,23,06,41,1.80
2018,08,23,06,42,1.80
2018,08,23,06,43,1.80
2018,08,23,06,44,1.80
2018,08,23,06,45,1.70
2018,08,23,06,46,1.70
2018,08,23,06,47,1.70
2018,08,23,06,48,1.60
2018,08,23,06,49,1.60
2018,08,23,06,50,1.60
2018,08,23,06,51,1.60
2018,08,23,06,52,1.60
2018,08,23,06,53,1.60
2018,08,23,06,54,1.60
2018,08,23,06,55,1.60
2018,08,23,06,56,1.50
2018,08,23,06,57,1.50
2018,08,23,06,58,1.50
2018,08,23,06,59,1.50
2018,08,23,07,00,1.50
2018,08,23,07,01,1.50
2018,08,23,07,02,1.50
2018,08,23,07,03,1.50
2018,08,23,07,04,1.40
2018,08,23,07,05,1.40
2018,08,23,07,06,1.40
2018,08,23,07,07,1.40
2018,08,23,07,08,1.40
2018,08,23,07,09,1.50
2018,08,23,07,10,1.40
2018,08,23,07,11,1.40
2018,08,23,07,12,1.40
2018,08,23,07,13,1.40
2018,08,23,07,14,1.40
2018,08,23,07,15,1.50
2018,08,23,07,16,1.50
2018,08,23,07,17,1.50
2018,08,23,07,18,1.50
2018,08,23,07,19,1.50
2018,08,23,07,20,1.50
2018,08,23,07,21,1.50
2018,08,23,07,22,1.50
2018,08,23,07,23,1.50
2018,08,23,07,24,1.50
2018,08,23,07,25,1.50
2018,08,23,07,26,1.50
2018,08,23,07,27,1.50
2018,08,23,07,28,1.60
2018,08,23,07,29,1.60
2018,08,23,07,30,1.60
2018,08,23,07,31,1.60
2018,08,23,07,32,1.60
2018,08,23,07,33,1.60
2018,08,23,07,34,1.60
2018,08,23,07,35,1.60
2018,08,23,07,36,1.60
2018,08,23,07,37,1.60
2018,08,23,07,38,1.60
2018,08,23,07,39,1.60
2018,08,23,07,40,1.60
2018,08,23,07,41,1.60
2018,08,23,07,42,1.60
2018,08,23,07,43,1.60
2018,08,23,07,44,1.60
2018,08,23,07,45,1.60
2018,08,23,07,46,1.60
2018,08,23,07,47,1.60
2018,08,23,07,48,1.60
2018,08,23,07,49,1.60
2018,08,23,07,50,1.60
2018,08,23,07,51,1.70
2018,08,23,07,52,1.70
2018,08,23,07,53,1.70
2018,08,23,07,54,1.70
2018,08,23,07,55,1.70
2018,08,23,07,56,1.70
2018,08,23,07,57,1.70
2018,08,23,07,58,1.70
2018,08,23,07,59,1.70
2018,08,23,08,00,1.70
2018,08,23,08,01,1.70
2018,08,23,08,02,1.70
2018,08,23,08,03,1.70
2018,08,23,08,04,1.80
2018,08,23,08,05,1.80
2018,08,23,08,06,1.80
2018,08,23,08,07,1.80
2018,08,23,08,08,1.80
2018,08,23,08,09,1.80
2018,08,23,08,10,1.80
2018,08,23,08,11,1.90
2018,08,23,08,12,1.90
2018,08,23,08,13,1.90
2018,08,23,08,14,1.90
2018,08,23,08,15,1.90
2018,08,23,08,16,1.90
2018,08,23,08,17,1.90
2018,08,23,08,18,2.00
2018,08,23,08,19,2.00
2018,08,23,08,20,2.00
2018,08,23,08,21,2.10
2018,08,23,08,22,2.10
2018,08,23,08,23,2.20
2018,08,23,08,24,2.20
2018,08,23,08,25,2.20
2018,08,23,08,26,2.30
2018,08,23,08,27,2.30
2018,08,23,08,28,2.30
2018,08,23,08,29,2.40
2018,08,23,08,30,2.40
2018,08,23,08,31,2.50
2018,08,23,08,32,2.50
2018,08,23,08,33,2.50
2018,08,23,08,34,2.60
2018,08,23,08,35,2.60
2018,08,23,08,36,2.60
2018,08,23,08,37,2.60
2018,08,23,08,38,2.60
2018,08,23,08,39,2.70
2018,08,23,08,40,2.70
2018,08,23,08,41,2.70
2018,08,23,08,42,2.70
2018,08,23,08,43,2.70
2018,08,23,08,44,2.80
2018,08,23,08,45,2.80
2018,08,23,08,46,2.80
2018,08,23,08,47,2.80
2018,08,23,08,48,2.80
2018,08,23,08,49,2.80
2018,08,23,08,50,2.80
2018,08,23,08,51,2.80
2018,08,23,08,52,2.80
2018,08,23,08,53,2.80
2018,08,23,08,54,2.90
2018,08,23,08,55,2.90
2018,08,23,08,56,2.90
2018,08,23,08,57,2.90
2018,08,23,08,58,2.90
2018,08,23,08,59,3.00
2018,08,23,09,00,3.00
2018,08,23,09,01,3.00
2018,08,23,09,02,3.00
2018,08,23,09,03,3.00
2018,08,23,09,04,3.00
2018,08,23,09,05,3.00
2018,08,23,09,06,3.10
2018,08,23,09,07,3.10
2018,08,23,09,08,3.10
2018,08,23,09,09,3.10
2018,08,23,09,10,3.10
2018,08,23,09,11,3.20
2018,08,23,09,12,3.20
2018,08,23,09,13,3.20
2018,08,23,09,14,3.20
2018,08,23,09,15,3.20
2018,08,23,09,16,3.20
2018,08,23,09,17,3.20
2018,08,23,09,18,3.20
2018,08,23,09,19,3.20
2018,08,23,09,20,3.20
2018,08,23,09,21,3.20
2018,08,23,09,22,3.20
2018,08,23,09,23,3.20
2018,08,23,09,24,3.20
2018,08,23,09,25,3.30
2018,08,23,09,26,3.30
2018,08,23,09,27,3.30
2018,08,23,09,28,3.40
2018,08,23,09,29,3.50
2018,08,23,09,30,3.50
2018,08,23,09,31,3.60
2018,08,23,09,32,3.70
2018,08,23,09,33,3.70
2018,08,23,09,34,3.80
2018,08,23,09,35,3.80
2018,08,23,09,36,3.90
2018,08,23,09,37,3.90
2018,08,23,09,38,4.00
2018,08,23,09,39,4.10
2018,08,23,09,40,4.10
2018,08,23,09,41,4.10
2018,08,23,09,42,4.20
2018,08,23,09,43,4.10
2018,08,23,09,44,4.10
2018,08,23,09,45,4.10
2018,08,23,09,46,4.10
2018,08,23,09,47,4.10
2018,08,23,09,48,4.10
2018,08,23,09,49,4.10
2018,08,23,09,50,4.20
2018,08,23,09,51,4.20
2018,08,23,09,52,4.20
2018,08,23,09,53,4.20
2018,08,23,09,54,4.20
2018,08,23,09,55,4.20
2018,08,23,09,56,4.20
2018,08,23,09,57,4.30
2018,08,23,09,58,4.30
2018,08,23,09,59,4.30
2018,08,23,10,00,4.30
2018,08,23,10,01,4.30
2018,08,23,10,02,4.40
2018,08,23,10,03,4.40
2018,08,23,10,04,4.40
2018,08,23,10,05,4.40
2018,08,23,10,06,4.40
2018,08,23,10,07,4.40
2018,08,23,10,08,4.40
2018,08,23,10,09,4.50
2018,08,23,10,10,4.50
2018,08,23,10,11,4.50
2018,08,23,10,12,4.60
2018,08,23,10,13,4.60
2018,08,23,10,14,4.60
2018,08,23,10,15,4.70
2018,08,23,10,16,4.70
2018,08,23,10,17,4.70
2018,08,23,10,18,4.80
2018,08,23,10,19,4.80
2018,08,23,10,20,4.80
2018,08,23,10,21,4.90
2018,08,23,10,22,5.00
2018,08,23,10,23,5.00
2018,08,23,10,24,5.10
2018,08,23,10,25,5.10
2018,08,23,10,26,5.20
2018,08,23,10,27,5.20
2018,08,23,10,28,5.30
2018,08,23,10,29,5.30
2018,08,23,10,30,5.40
2018,08,23,10,31,5.40
2018,08,23,10,32,5.50
2018,08,23,10,33,5.50
2018,08,23,10,34,5.60
2018,08,23,10,35,5.60
2018,08,23,10,36,5.70
2018,08,23,10,37,5.70
2018,08,23,10,38,5.70
2018,08,23,10,39,5.80
2018,08,23,10,40,5.80
2018,08,23,10,41,5.70
2018,08,23,10,42,5.70
2018,08,23,10,43,5.70
2018,08,23,10,44,5.70
2018,08,23,10,45,5.70
2018,08,23,10,46,5.80
2018,08,23,10,47,5.90
2018,08,23,10,48,5.90
2018,08,23,10,49,6.00
2018,08,23,10,50,6.10
2018,08,23,10,51,6.20
2018,08,23,10,52,6.30
2018,08,23,10,53,6.40
2018,08,23,10,54,6.50
2018,08,23,10,55,6.60
2018,08,23,10,56,6.70
2018,08,23,10,57,6.70
2018,08,23,10,58,6.80
2018,08,23,10,59,6.80
2018,08,23,11,00,6.80
2018,08,23,11,01,6.90
2018,08,23,11,02,6.90
2018,08,23,11,03,7.00
2018,08,23,11,04,7.00
2018,08,23,11,05,7.10
2018,08,23,11,06,7.10
2018,08,23,11,07,7.20
2018,08,23,11,08,7.20
2018,08,23,11,09,7.20
2018,08,23,11,10,7.30
2018,08,23,11,11,7.30
2018,08,23,11,12,7.40
2018,08,23,11,13,7.40
2018,08,23,11,14,7.50
2018,08,23,11,15,7.50
2018,08,23,11,16,7.50
2018,08,23,11,17,7.60
2018,08,23,11,18,7.60
2018,08,23,11,19,7.70
2018,08,23,11,20,7.70
2018,08,23,11,21,7.80
2018,08,23,11,22,7.80
2018,08,23,11,23,7.90
2018,08,23,11,24,7.90
2018,08,23,11,25,7.90
2018,08,23,11,26,8.00
2018,08,23,11,27,8.00
2018,08,23,11,28,8.00
2018,08,23,11,29,8.10
2018,08,23,11,30,8.10
2018,08,23,11,31,8.00
2018,08,23,11,32,8.00
2018,08,23,11,33,8.00
2018,08,23,11,34,8.00
2018,08,23,11,35,8.00
2018,08,23,11,36,8.00
2018,08,23,11,37,8.10
2018,08,23,11,38,8.10
2018,08,23,11,39,8.10
2018,08,23,11,40,8.10
2018,08,23,11,41,8.00
2018,08,23,11,42,8.00
2018,08,23,11,43,8.00
2018,08,23,11,44,8.00
2018,08,23,11,45,8.10
2018,08,23,11,46,8.10
2018,08,23,11,47,8.10
2018,08,23,11,48,8.20
2018,08,23,11,49,8.20
2018,08,23,11,50,8.30
2018,08,23,11,51,8.30
2018,08,23,11,52,8.40
2018,08,23,11,53,8.40
2018,08,23,11,54,8.40
2018,08,23,11,55,8.50
2018,08,23,11,56,8.60
2018,08,23,11,57,8.60
2018,08,23,11,58,8.70
2018,08,23,11,59,8.70
2018,08,23,12,00,8.80
2018,08,23,12,01,8.90
2018,08,23,12,02,9.00
2018,08,23,12,03,9.00
2018,08,23,12,04,9.10
2018,08,23,12,05,9.10
2018,08,23,12,06,9.10
2018,08,23,12,07,9.10
2018,08,23,12,08,9.10
2018,08,23,12,09,9.10
2018,08,23,12,10,9.10
2018,08,23,12,11,9.10
2018,08,23,12,12,9.10
2018,08,23,12,13,9.10
2018,08,23,12,14,9.10
2018,08,23,12,15,9.10
2018,08,23,12,16,9.10
2018,08,23,12,17,9.10
2018,08,23,12,18,9.10
2018,08,23,12,19,9.10
2018,08,23,12,20,9.10
2018,08,23,12,21,9.10
2018,08,23,12,22,9.10
2018,08,23,12,23,9.10
2018,08,23,12,24,9.10
2018,08,23,12,25,9.10
2018,08,23,12,26,9.20
2018,08,23,12,27,9.20
2018,08,23,12,28,9.30
2018,08,23,12,29,9.40
2018,08,23,12,30,9.50
2018,08,23,12,31,9.50
2018,08,23,12,32,9.60
2018,08,23,12,33,9.60
2018,08,23,12,34,9.60
2018,08,23,12,35,9.70
2018,08,23,12,36,9.70
2018,08,23,12,37,9.70
2018,08,23,12,38,9.80
2018,08,23,12,39,9.80
2018,08,23,12,40,9.90
2018,08,23,12,41,9.90
2018,08,23,12,42,10.00
2018,08,23,12,43,10.00
2018,08,23,12,44,10.10
2018,08,23,12,45,10.10
2018,08,23,12,46,10.20
2018,08,23,12,47,10.20
2018,08,23,12,48,10.30
2018,08,23,12,49,10.30
2018,08,23,12,50,10.40
2018,08,23,12,51,10.40
2018,08,23,12,52,10.40
2018,08,23,12,53,10.40
2018,08,23,12,54,10.40
2018,08,23,12,55,10.40
2018,08,23,12,56,10.40
2018,08,23,12,57,10.40
2018,08,23,12,58,10.40
2018,08,23,12,59,10.30
2018,08,23,13,00,10.30
2018,08,23,13,01,10.40
2018,08,23,13,02,10.30
2018,08,23,13,03,10.30
2018,08,23,13,04,10.30
2018,08,23,13,05,10.30
2018,08,23,13,06,10.30
2018,08,23,13,07,10.40
2018,08,23,13,08,10.40
2018,08,23,13,09,10.40
2018,08,23,13,10,10.40
2018,08,23,13,11,10.40
2018,08,23,13,12,10.40
2018,08,23,13,13,10.40
2018,08,23,13,14,10.40
2018,08,23,13,15,10.40
2018,08,23,13,16,10.40
2018,08,23,13,17,10.30
2018,08,23,13,18,10.30
2018,08,23,13,19,10.30
2018,08,23,13,20,10.30
2018,08,23,13,21,10.30
2018,08,23,13,22,10.30
2018,08,23,13,23,10.30
2018,08,23,13,24,10.30
2018,08,23,13,25,10.30
2018,08,23,13,26,10.30
2018,08,23,13,27,10.40
2018,08,23,13,28,10.40
2018,08,23,13,29,10.40
2018,08,23,13,30,10.40
2018,08,23,13,31,10.40
2018,08,23,13,32,10.40
2018,08,23,13,33,10.50
2018,08,23,13,34,10.40
2018,08,23,13,35,10.50
2018,08,23,13,36,10.50
2018,08,23,13,37,10.50
2018,08,23,13,38,10.50
2018,08,23,13,39,10.60
2018,08,23,13,40,10.60
2018,08,23,13,41,10.60
2018,08,23,13,42,10.60
2018,08,23,13,43,10.60
2018,08,23,13,44,10.60
2018,08,23,13,45,10.60
2018,08,23,13,46,10.60
2018,08,23,13,47,10.60
2018,08,23,13,48,10.60
2018,08,23,13,49,10.60
2018,08,23,13,50,10.60
2018,08,23,13,51,10.60
2018,08,23,13,52,10.60
2018,08,23,13,53,10.60
2018,08,23,13,54,10.70
2018,08,23,13,55,10.70
2018,08,23,13,56,10.70
2018,08,23,13,57,10.70
2018,08,23,13,58,10.70
2018,08,23,13,59,10.70
2018,08,23,14,00,10.70
2018,08,23,14,01,10.70
2018,08,23,14,02,10.80
2018,08,23,14,03,10.80
2018,08,23,14,04,10.80
2018,08,23,14,05,10.90
2018,08,23,14,06,11.00
2018,08,23,14,07,11.00
2018,08,23,14,08,11.10
2018,08,23,14,09,11.20
2018,08,23,14,10,11.30
2018,08,23,14,11,11.30
2018,08,23,14,12,11.30
2018,08,23,14,13,11.30
2018,08,23,14,14,11.30
2018,08,23,14,15,11.30
2018,08,23,14,16,11.40
2018,08,23,14,17,11.40
2018,08,23,14,18,11.40
2018,08,23,14,19,11.40
2018,08,23,14,20,11.50
2018,08,23,14,21,11.50
2018,08,23,14,22,11.60
2018,08,23,14,23,11.60
2018,08,23,14,24,11.70
2018,08,23,14,25,11.70
2018,08,23,14,26,11.70
2018,08,23,14,27,11.70
2018,08,23,14,28,11.80
2018,08,23,14,29,11.80
2018,08,23,14,30,11.90
2018,08,23,14,31,12.00
2018,08,23,14,32,12.00
2018,08,23,14,33,12.10
2018,08,23,14,34,12.20
2018,08,23,14,35,12.20
2018,08,23,14,36,12.30
2018,08,23,14,37,12.30
2018,08,23,14,38,12.40
2018,08,23,14,39,12.40
2018,08,23,14,40,12.40
2018,08,23,14,41,12.40
2018,08,23,14,42,12.40
2018,08,23,14,43,12.40
2018,08,23,14,44,12.40
2018,08,23,14,45,12.40
2018,08,23,14,46,12.50
2018,08,23,14,47,12.50
2018,08,23,14,48,12.60
2018,08,23,14,49,12.70
2018,08,23,14,50,12.80
2018,08,23,14,51,12.80
2018,08,23,14,52,12.90
2018,08,23,14,53,12.90
2018,08,23,14,54,13.00
2018,08,23,14,55,13.00
2018,08,23,14,56,13.00
2018,08,23,14,57,13.10
2018,08,23,14,58,13.10
2018,08,23,14,59,13.10
2018,08,23,15,00,13.10
2018,08,23,15,01,13.10
2018,08,23,15,02,13.10
2018,08,23,15,03,13.00
2018,08,23,15,04,13.00
2018,08,23,15,05,12.90
2018,08,23,15,06,12.90
2018,08,23,15,07,12.90
2018,08,23,15,08,12.90
2018,08,23,15,09,12.90
2018,08,23,15,10,12.90
2018,08,23,15,11,12.90
2018,08,23,15,12,12.90
2018,08,23,15,13,12.90
2018,08,23,15,14,12.90
2018,08,23,15,15,12.90
2018,08,23,15,16,12.90
2018,08,23,15,17,12.90
2018,08,23,15,18,13.00
2018,08,23,15,19,13.00
2018,08,23,15,20,13.00
2018,08,23,15,21,13.00
2018,08,23,15,22,13.00
2018,08,23,15,23,13.00
2018,08,23,15,24,13.00
2018,08,23,15,25,13.00
2018,08,23,15,26,13.00
2018,08,23,15,27,13.00
2018,08,23,15,28,13.00
2018,08,23,15,29,13.10
2018,08,23,15,30,13.10
2018,08,23,15,31,13.10
2018,08,23,15,32,13.10
2018,08,23,15,33,13.10
2018,08,23,15,34,13.10
2018,08,23,15,35,13.10
2018,08,23,15,36,13.10
2018,08,23,15,37,13.20
2018,08,23,15,38,13.20
2018,08,23,15,39,13.20
2018,08,23,15,40,13.20
2018,08,23,15,41,13.30
2018,08,23,15,42,13.30
2018,08,23,15,43,13.30
2018,08,23,15,44,13.30
2018,08,23,15,45,13.40
2018,08,23,15,46,13.40
2018,08,23,15,47,13.40
2018,08,23,15,48,13.50
2018,08,23,15,49,13.50
2018,08,23,15,50,13.50
2018,08,23,15,51,13.60
2018,08,23,15,52,13.60
2018,08,23,15,53,13.60
2018,08,23,15,54,13.70
2018,08,23,15,55,13.70
2018,08,23,15,56,13.70
2018,08,23,15,57,13.70
2018,08,23,15,58,13.70
2018,08,23,15,59,13.70
2018,08,23,16,00,13.80
2018,08,23,16,01,13.80
2018,08,23,16,02,13.80
2018,08,23,16,03,13.90
2018,08,23,16,04,13.90
2018,08,23,16,05,13.90
2018,08,23,16,06,14.00
2018,08,23,16,07,14.10
2018,08,23,16,08,14.10
2018,08,23,16,09,14.10
2018,08,23,16,10,14.10
2018,08,23,16,11,14.20
2018,08,23,16,12,14.20
2018,08,23,16,13,14.20
2018,08,23,16,14,14.20
2018,08,23,16,15,14.20
2018,08,23,16,16,14.20
2018,08,23,16,17,14.30
2018,08,23,16,18,14.30
2018,08,23,16,19,14.40
2018,08,23,16,20,14.40
2018,08,23,16,21,14.50
2018,08,23,16,22,14.60
2018,08,23,16,23,14.60
2018,08,23,16,24,14.70
2018,08,23,16,25,14.70
2018,08,23,16,26,14.70
2018,08,23,16,27,14.70
2018,08,23,16,28,14.70
2018,08,23,16,29,14.70
2018,08,23,16,30,14.70
2018,08,23,16,31,14.80
2018,08,23,16,32,14.80
2018,08,23,16,33,14.70
2018,08,23,16,34,14.70
2018,08,23,16,35,14.80
2018,08,23,16,36,14.80
2018,08,23,16,37,14.80
2018,08,23,16,38,14.80
2018,08,23,16,39,14.80
2018,08,23,16,40,14.80
2018,08,23,16,41,14.80
2018,08,23,16,42,14.80
2018,08,23,16,43,14.80
2018,08,23,16,44,14.90
2018,08,23,16,45,14.90
2018,08,23,16,46,14.90
2018,08,23,16,47,14.90
2018,08,23,16,48,14.90
2018,08,23,16,49,14.90
2018,08,23,16,50,14.90
2018,08,23,16,51,14.90
2018,08,23,16,52,14.90
2018,08,23,16,53,14.90
2018,08,23,16,54,14.90
2018,08,23,16,55,14.90
2018,08,23,16,56,14.90
2018,08,23,16,57,15.00
2018,08,23,16,58,15.00
2018,08,23,16,59,15.10
2018,08,23,17,00,15.10
2018,08,23,17,01,15.10
2018,08,23,17,02,15.20
2018,08,23,17,03,15.20
2018,08,23,17,04,15.30
2018,08,23,17,05,15.30
2018,08,23,17,06,15.30
2018,08,23,17,07,15.30
2018,08,23,17,08,15.30
2018,08,23,17,09,15.30
2018,08,23,17,10,15.30
2018,08,23,17,11,15.30
2018,08,23,17,12,15.30
2018,08,23,17,13,15.30
2018,08,23,17,14,15.30
2018,08,23,17,15,15.30
2018,08,23,17,16,15.40
2018,08,23,17,17,15.40
2018,08,23,17,18,15.40
2018,08,23,17,19,15.40
2018,08,23,17,20,15.40
2018,08,23,17,21,15.40
2018,08,23,17,22,15.40
2018,08,23,17,23,15.40
2018,08,23,17,24,15.40
2018,08,23,17,25,15.40
2018,08,23,17,26,15.40
2018,08,23,17,27,15.40
2018,08,23,17,28,15.40
2018,08,23,17,29,15.40
2018,08,23,17,30,15.40
2018,08,23,17,31,15.40
2018,08,23,17,32,15.40
2018,08,23,17,33,15.40
2018,08,23,17,34,15.40
2018,08,23,17,35,15.50
2018,08,23,17,36,15.60
2018,08,23,17,37,15.60
2018,08,23,17,38,15.70
2018,08,23,17,39,15.80
2018,08,23,17,40,15.80
2018,08,23,17,41,15.90
2018,08,23,17,42,16.00
2018,08,23,17,43,16.10
2018,08,23,17,44,16.10
2018,08,23,17,45,16.20
2018,08,23,17,46,16.20
2018,08,23,17,47,16.20
2018,08,23,17,48,16.20
2018,08,23,17,49,16.10
2018,08,23,17,50,16.10
2018,08,23,17,51,16.00
2018,08,23,17,52,16.00